{"data":{"norad_id":57379,"epoch":"2026-05-25T01:52:39.783072Z","epoch_age_seconds":68534,"freshness":"FRESH","line1":"1 57379U 23099BD  26145.07823823  .00000514  00000+0  28201-4 0  9991","line2":"2 57379  43.0022 166.7159 0001205 278.1720  81.8995 15.27574148157922","mean_motion":15.27574148,"eccentricity":0.0001205,"inclination_deg":43.0022,"raan_deg":166.7159,"arg_perigee_deg":278.172,"mean_anomaly_deg":81.8995,"bstar":2.8201e-5,"rev_number":15792,"period_min":94.267109841139,"perigee_km":482.23984405274,"apogee_km":483.89339412494,"semimajor_km":6861.2036190888,"source":"CELESTRAK","updated_at":"2026-05-25T13:38:18.296823Z"}}